• In Belarus
  • List of Countries
  • For 7 days
  • Water Temperature
  • Satellite Maps
  • Weather Map
  • Weather Widgets
  • user-avatar
    Login

    Hourly Weather Yangon

    Today, 20 May, Monday

    Time Temperature Precipitation Wind Pressure Humidity
    00:00 +33°C° 0 mm 4 mps 755 mmHg 69%
    01:00 +33°C° 0 mm 4 mps 755 mmHg 70%
    02:00 +33°C° 0 mm 4 mps 755 mmHg 72%
    03:00 +32°C° 0 mm 4 mps 754 mmHg 74%
    04:00 +32°C° 0 mm 4 mps 755 mmHg 74%
    05:00 +32°C° 0 mm 4 mps 755 mmHg 75%
    06:00 +31°C° 0 mm 3 mps 755 mmHg 75%
    07:00 +34°C° 0 mm 3 mps 755 mmHg 68%
    08:00 +36°C° 0 mm 2 mps 755 mmHg 62%
    09:00 +37°C° 0 mm 2 mps 756 mmHg 55%
    10:00 +39°C° 0 mm 2 mps 755 mmHg 50%
    11:00 +40°C° 0 mm 3 mps 755 mmHg 46%
    12:00 +42°C° 0 mm 4 mps 755 mmHg 41%
    13:00 +42°C° 0 mm 4 mps 754 mmHg 44%
    14:00 +41°C° 0 mm 5 mps 753 mmHg 47%
    15:00 +41°C° 0 mm 6 mps 753 mmHg 49%
    16:00 +40°C° 0 mm 6 mps 753 mmHg 53%
    17:00 +39°C° 0 mm 6 mps 753 mmHg 56%
    18:00 +38°C° 0 mm 6 mps 753 mmHg 59%
    19:00 +36°C° 0.1 mm 6 mps 754 mmHg 61%
    20:00 +36°C° 0.1 mm 6 mps 754 mmHg 62%
    21:00 +35°C° 0.1 mm 6 mps 754 mmHg 64%
    22:00 +35°C° 0 mm 5 mps 754 mmHg 66%
    23:00 +34°C° 0 mm 5 mps 754 mmHg 68%

    Tomorrow, 21 May, Tuesday

    Time Temperature Precipitation Wind Pressure Humidity
    00:00 +34°C° 0 mm 4 mps 754 mmHg 71%
    01:00 +33°C° 0.6 mm 4 mps 754 mmHg 72%
    02:00 +33°C° 0.6 mm 4 mps 754 mmHg 73%
    03:00 +33°C° 0.6 mm 4 mps 753 mmHg 75%
    04:00 +33°C° 1.5 mm 4 mps 754 mmHg 75%
    05:00 +33°C° 1.5 mm 3 mps 754 mmHg 75%
    06:00 +33°C° 1.5 mm 3 mps 754 mmHg 76%
    07:00 +33°C° 0.4 mm 3 mps 755 mmHg 72%
    08:00 +34°C° 0.4 mm 2 mps 755 mmHg 68%
    09:00 +35°C° 0.4 mm 2 mps 756 mmHg 64%
    10:00 +36°C° 0 mm 2 mps 755 mmHg 60%
    11:00 +37°C° 0 mm 2 mps 755 mmHg 55%
    12:00 +38°C° 0 mm 2 mps 755 mmHg 50%
    13:00 +38°C° 0 mm 3 mps 754 mmHg 51%
    14:00 +38°C° 0 mm 4 mps 754 mmHg 52%
    15:00 +39°C° 0 mm 5 mps 753 mmHg 52%
    16:00 +37°C° 0 mm 5 mps 753 mmHg 57%
    17:00 +36°C° 0 mm 6 mps 753 mmHg 61%
    18:00 +35°C° 0 mm 6 mps 753 mmHg 65%
    19:00 +35°C° 0.9 mm 6 mps 754 mmHg 65%
    20:00 +35°C° 0.9 mm 5 mps 754 mmHg 66%
    21:00 +35°C° 0.9 mm 5 mps 755 mmHg 66%
    22:00 +34°C° 0 mm 5 mps 755 mmHg 68%
    23:00 +34°C° 0 mm 5 mps 754 mmHg 70%

    Day after tomorrow, 22 May, Wednesday

    Time Temperature Precipitation Wind Pressure Humidity
    00:00 +33°C° 0 mm 5 mps 754 mmHg 72%
    01:00 +33°C° 0 mm 5 mps 754 mmHg 73%
    02:00 +33°C° 0 mm 4 mps 754 mmHg 74%
    03:00 +32°C° 0 mm 4 mps 753 mmHg 75%
    04:00 +32°C° 0.7 mm 4 mps 754 mmHg 75%
    05:00 +32°C° 0.7 mm 4 mps 754 mmHg 76%
    06:00 +31°C° 0.7 mm 3 mps 755 mmHg 76%
    07:00 +33°C° 1.3 mm 3 mps 755 mmHg 72%
    08:00 +34°C° 1.3 mm 2 mps 755 mmHg 67%
    09:00 +35°C° 1.3 mm 2 mps 756 mmHg 63%
    10:00 +36°C° 0 mm 2 mps 755 mmHg 58%
    11:00 +37°C° 0 mm 3 mps 755 mmHg 52%
    12:00 +38°C° 0 mm 3 mps 755 mmHg 47%
    13:00 +38°C° 0 mm 4 mps 754 mmHg 50%
    14:00 +39°C° 0 mm 5 mps 753 mmHg 52%
    15:00 +38°C° 0 mm 6 mps 753 mmHg 54%
    16:00 +38°C° 0.2 mm 6 mps 753 mmHg 57%
    17:00 +36°C° 0.2 mm 6 mps 753 mmHg 60%
    18:00 +35°C° 0.2 mm 6 mps 753 mmHg 63%
    19:00 +35°C° 1.2 mm 6 mps 753 mmHg 63%
    20:00 +35°C° 1.2 mm 5 mps 754 mmHg 63%
    21:00 +34°C° 1.2 mm 5 mps 754 mmHg 63%
    22:00 +34°C° 0.2 mm 5 mps 754 mmHg 66%
    23:00 +33°C° 0.2 mm 4 mps 754 mmHg 68%

    23 May, Thursday

    Time Temperature Precipitation Wind Pressure Humidity
    00:00 +33°C° 0.2 mm 4 mps 754 mmHg 70%
    01:00 +32°C° 0 mm 4 mps 754 mmHg 71%
    02:00 +32°C° 0 mm 4 mps 754 mmHg 73%
    03:00 +32°C° 0 mm 4 mps 753 mmHg 75%
    04:00 +32°C° 0 mm 4 mps 754 mmHg 75%
    05:00 +31°C° 0 mm 3 mps 754 mmHg 76%
    06:00 +31°C° 0 mm 3 mps 754 mmHg 77%
    07:00 +33°C° 0 mm 3 mps 755 mmHg 72%
    08:00 +34°C° 0 mm 3 mps 755 mmHg 67%
    09:00 +34°C° 0 mm 2 mps 756 mmHg 62%
    10:00 +36°C° 0 mm 3 mps 756 mmHg 57%
    11:00 +37°C° 0 mm 3 mps 755 mmHg 52%
    12:00 +38°C° 0 mm 3 mps 755 mmHg 47%
    13:00 +38°C° 0 mm 4 mps 754 mmHg 47%
    14:00 +39°C° 0 mm 5 mps 754 mmHg 46%
    15:00 +40°C° 0 mm 6 mps 753 mmHg 46%
    16:00 +38°C° 0.1 mm 6 mps 753 mmHg 51%
    17:00 +36°C° 0.1 mm 6 mps 753 mmHg 57%
    18:00 +35°C° 0.1 mm 7 mps 754 mmHg 63%
    19:00 +35°C° 0.4 mm 6 mps 754 mmHg 62%
    20:00 +35°C° 0.4 mm 6 mps 755 mmHg 62%
    21:00 +34°C° 0.4 mm 6 mps 755 mmHg 62%
    22:00 +34°C° 0.2 mm 6 mps 755 mmHg 64%
    23:00 +33°C° 0.2 mm 5 mps 755 mmHg 66%

    24 May, Friday

    Time Temperature Precipitation Wind Pressure Humidity
    00:00 +33°C° 0.2 mm 5 mps 754 mmHg 68%
    01:00 +33°C° 0.1 mm 4 mps 754 mmHg 69%
    02:00 +32°C° 0.1 mm 4 mps 754 mmHg 71%
    03:00 +32°C° 0.1 mm 4 mps 754 mmHg 72%
    04:00 +32°C° 0 mm 4 mps 754 mmHg 72%
    05:00 +32°C° 0 mm 4 mps 755 mmHg 73%
    06:00 +31°C° 0 mm 3 mps 756 mmHg 73%
    07:00 +33°C° 0 mm 3 mps 756 mmHg 66%
    08:00 +34°C° 0 mm 3 mps 756 mmHg 60%
    09:00 +36°C° 0 mm 3 mps 757 mmHg 54%
    10:00 +37°C° 0 mm 3 mps 756 mmHg 50%
    11:00 +38°C° 0 mm 3 mps 756 mmHg 45%
    12:00 +39°C° 0 mm 3 mps 755 mmHg 41%
    13:00 +38°C° 0.6 mm 4 mps 755 mmHg 46%
    14:00 +37°C° 0.6 mm 5 mps 754 mmHg 51%
    15:00 +36°C° 0.6 mm 6 mps 753 mmHg 56%
    16:00 +35°C° 0.8 mm 6 mps 753 mmHg 59%
    17:00 +35°C° 0.8 mm 6 mps 754 mmHg 61%
    18:00 +34°C° 0.8 mm 6 mps 754 mmHg 63%
    19:00 +34°C° 0.3 mm 6 mps 754 mmHg 64%
    20:00 +34°C° 0.3 mm 6 mps 755 mmHg 64%
    21:00 +34°C° 0.3 mm 6 mps 755 mmHg 65%
    22:00 +33°C° 0.5 mm 6 mps 755 mmHg 68%
    23:00 +33°C° 0.5 mm 6 mps 754 mmHg 70%

    25 May, Saturday

    Time Temperature Precipitation Wind Pressure Humidity
    00:00 +32°C° 0.5 mm 6 mps 754 mmHg 73%
    01:00 +32°C° 1 mm 5 mps 754 mmHg 74%
    02:00 +32°C° 1 mm 5 mps 753 mmHg 76%
    03:00 +32°C° 1 mm 5 mps 753 mmHg 77%
    04:00 +32°C° 0.7 mm 4 mps 754 mmHg 78%
    05:00 +32°C° 0.7 mm 4 mps 754 mmHg 78%
    06:00 +32°C° 0.7 mm 4 mps 754 mmHg 78%
    07:00 +33°C° 1.3 mm 4 mps 755 mmHg 73%
    08:00 +34°C° 1.3 mm 3 mps 755 mmHg 67%
    09:00 +35°C° 1.3 mm 3 mps 755 mmHg 62%
    10:00 +36°C° 1 mm 3 mps 755 mmHg 59%
    11:00 +36°C° 1 mm 3 mps 754 mmHg 56%
    12:00 +37°C° 1 mm 3 mps 754 mmHg 54%
    13:00 +37°C° 0.8 mm 4 mps 753 mmHg 55%
    14:00 +36°C° 0.8 mm 4 mps 753 mmHg 56%
    15:00 +36°C° 0.8 mm 5 mps 752 mmHg 57%
    16:00 +36°C° 0.2 mm 5 mps 752 mmHg 59%
    17:00 +36°C° 0.2 mm 4 mps 753 mmHg 60%
    18:00 +35°C° 0.2 mm 4 mps 753 mmHg 61%
    19:00 +35°C° 0.9 mm 5 mps 753 mmHg 64%
    20:00 +34°C° 0.9 mm 5 mps 754 mmHg 66%
    21:00 +33°C° 0.9 mm 6 mps 754 mmHg 69%
    22:00 +33°C° 0.7 mm 6 mps 754 mmHg 71%
    23:00 +33°C° 0.7 mm 5 mps 754 mmHg 74%
    Show more